Theta_e
326 323 323 321 321 320 318 317 317 317 317 317 316 316 316 316 315 314 314 314 314 314 315 311 310 310 311 312 313 311 312 311 308 307 306 307 305 306 310 309 310 311 309 307 306 303 304 302 301 305 307 307 307 308 308 306 304 305 307 309 308 308 310
325 324 323 322 320 319 317 316 315 315 315 315 315 314 314 315 317 313 313 313 313 313 315 311 310 310 309 309 309 309 309 309 311 309 307 305 305 304 305 305 306 306 306 305 304 303 302 300 299 299 300 302 302 302 304 303 303 305 305 307 307 306 309
325 323 322 320 318 318 315 314 313 313 313 313 313 313 313 313 313 313 312 312 312 313 313 309 309 309 308 308 308 309 309 308 308 308 306 305 305 304 303 303 301 302 302 302 301 299 299 301 297 297 297 296 294 297 302 301 301 303 303 305 303 303 304
323 321 319 318 317 316 314 313 313 312 312 311 311 311 311 311 312 314 311 311 312 314 311 308 308 308 308 308 308 308 308 307 306 305 305 304 303 303 302 302 300 300 300 299 297 297 296 295 294 294 294 296 295 295 298 300 301 301 302 302 302 302 303
323 320 318 316 315 314 313 312 311 311 310 310 310 309 309 310 310 309 311 309 310 308 307 308 308 307 308 307 307 307 306 305 305 305 302 301 301 301 300 301 300 300 300 299 298 297 295 295 294 293 293 295 295 296 298 299 300 300 301 300 301 301 302
321 319 317 315 314 313 312 311 310 309 309 308 308 308 307 308 309 308 308 307 307 309 308 307 307 307 307 307 306 305 304 303 303 302 300 300 300 299 298 299 299 299 299 299 299 297 297 296 295 293 295 296 293 294 296 297 296 299 300 299 300 300 301
320 319 316 314 313 312 312 311 310 309 308 308 307 307 307 309 308 308 308 307 307 308 308 307 307 307 306 305 304 303 302 302 302 301 300 300 299 299 299 298 297 298 298 298 297 297 296 295 295 294 293 294 294 294 296 296 297 295 296 299 300 300 300
319 318 316 315 313 312 312 310 310 309 308 308 307 307 309 307 307 308 307 306 306 306 306 305 306 305 305 305 304 303 302 301 301 301 299 299 299 298 298 298 298 297 297 298 297 297 297 297 296 295 294 291 292 294 293 295 295 294 294 297 299 299 299
319 316 315 314 313 312 311 310 309 309 308 308 308 307 306 306 306 305 306 305 306 305 305 304 303 303 303 302 301 301 301 304 300 299 299 298 298 298 297 297 297 296 297 297 298 297 297 298 298 297 296 294 291 289 292 291 292 293 296 295 297 298 299
316 314 313 312 312 312 311 310 309 309 308 307 307 307 305 305 305 304 304 304 304 304 303 303 303 302 301 301 300 300 299 300 300 298 299 298 298 297 297 297 296 296 296 297 297 298 298 298 298 298 297 295 294 291 289 289 291 291 294 296 294 297 299
315 314 313 312 312 311 310 310 309 307 305 306 306 306 304 303 304 306 303 303 303 303 302 302 302 301 301 300 300 299 299 299 299 299 299 298 297 298 297 296 296 295 296 295 295 296 297 297 296 297 296 296 295 292 291 289 290 293 293 295 296 295 298
314 314 313 313 311 310 309 308 306 304 304 304 304 302 302 302 302 302 302 302 302 302 302 301 301 300 300 299 300 299 299 298 298 297 298 298 297 297 295 295 295 295 295 295 295 295 296 296 296 296 295 296 296 295 293 293 289 293 295 293 295 297 297
314 313 313 312 311 309 307 304 302 302 302 303 301 302 301 301 301 301 301 301 301 301 301 300 300 300 299 298 298 298 298 298 297 296 296 297 297 296 295 294 294 294 294 294 294 294 294 295 296 295 295 295 294 295 295 294 291 291 295 295 295 296 298
313 313 312 311 309 306 305 304 301 301 301 300 301 300 300 300 300 300 300 301 300 300 299 299 299 299 298 297 297 297 297 297 296 296 296 295 296 295 295 294 294 294 294 293 293 294 294 294 295 295 295 294 293 294 294 293 292 292 294 296 296 296 297
312 311 310 308 306 304 302 301 301 300 300 300 300 300 300 300 299 299 299 299 299 299 299 298 298 298 298 297 297 298 296 296 295 295 295 294 294 295 294 293 293 294 294 293 293 293 293 293 294 293 294 294 293 293 294 293 292 292 290 294 294 296 296
310 309 307 305 303 301 300 300 301 299 299 299 300 299 298 298 298 298 298 298 298 298 298 298 297 297 297 296 296 296 296 295 295 295 294 294 294 294 293 294 292 293 294 292 292 292 293 293 294 293 293 294 293 293 294 294 292 291 291 292 294 294 294
307 306 303 302 300 300 300 299 300 299 298 298 298 298 298 297 298 297 297 297 297 298 298 297 297 296 296 296 296 295 295 295 295 295 295 294 294 294 292 292 292 292 292 291 291 292 292 292 292 293 293 293 294 293 294 294 293 292 292 291 293 293 295
304 302 301 300 299 299 299 299 299 298 298 297 297 297 298 297 297 297 297 296 296 297 297 297 296 296 296 296 296 295 295 294 294 294 294 295 298 293 293 292 292 291 291 290 290 291 291 291 292 293 292 293 293 294 294 294 293 293 292 291 292 294 295
303 301 300 299 299 299 299 298 298 298 298 297 296 296 296 296 297 295 295 295 296 295 296 296 296 296 296 296 295 295 295 295 294 294 293 294 293 294 293 292 292 291 290 290 290 290 290 290 291 291 291 292 292 293 293 293 293 293 292 292 292 292 293
302 301 300 299 299 298 298 297 297 297 298 296 296 295 295 295 296 295 295 295 295 295 295 295 295 295 295 294 295 294 294 294 294 293 293 293 293 293 292 292 293 292 292 291 291 290 290 290 291 290 292 291 292 292 292 292 292 292 291 291 291 292 292
302 301 300 299 298 298 297 297 297 297 297 295 295 295 295 295 295 295 295 295 295 295 294 294 293 293 294 294 295 294 294 294 293 292 292 292 293 292 292 292 292 293 293 294 293 291 290 290 290 290 290 291 291 291 291 291 291 291 290 290 290 290 291
301 301 300 299 298 297 297 296 296 296 296 296 296 294 294 294 294 293 293 294 294 294 294 294 294 294 294 293 293 294 294 293 293 292 291 291 291 291 291 291 292 295 299 301 300 297 296 295 292 290 290 290 291 291 290 290 290 290 289 289 289 290 290
301 300 299 298 297 297 296 296 296 295 295 294 294 294 293 294 293 293 293 292 293 293 293 294 298 299 299 295 293 293 293 292 292 291 291 291 291 291 291 290 295 300 299 300 299 295 294 294 295 293 292 291 290 290 290 289 289 289 289 288 288 288 288
300 299 298 297 296 296 296 295 294 294 293 293 293 294 293 292 292 292 292 292 291 292 292 293 295 293 295 297 294 293 293 291 291 291 290 289 290 292 291 290 290 295 296 297 297 294 293 293 293 293 294 295 296 291 289 288 288 289 289 288 289 288 288
299 298 297 296 296 295 295 294 293 293 292 292 292 292 291 291 291 291 291 291 291 291 291 295 292 294 295 295 297 294 292 292 292 290 290 289 289 289 290 291 291 292 292 296 295 290 292 293 293 293 293 293 293 293 292 290 289 288 288 288 288 288 288
298 297 297 296 295 295 294 293 293 292 291 292 291 291 290 290 290 290 291 291 290 290 290 294 292 294 294 294 294 295 292 291 291 291 290 290 289 289 289 292 292 292 291 298 296 290 289 289 293 293 294 294 293 294 291 291 292 292 290 288 287 287 288
298 297 297 296 295 294 293 292 292 292 292 292 290 290 289 289 290 290 291 291 290 290 290 294 293 294 294 293 293 294 291 291 291 291 291 289 289 290 290 290 291 291 290 290 291 290 289 288 288 288 289 289 289 291 292 292 292 292 293 290 288 287 289
298 298 297 296 295 294 293 293 293 292 291 291 290 289 289 289 290 291 290 290 291 291 291 293 293 293 293 293 293 294 291 292 291 290 289 290 289 289 289 291 290 289 289 289 293 292 289 288 287 288 287 288 288 288 288 289 290 290 291 290 289 289 289
299 298 297 296 295 294 294 293 291 291 291 289 290 290 289 290 289 289 290 291 290 289 289 292 293 293 293 293 294 295 291 290 289 289 289 289 290 289 289 290 290 289 289 288 293 291 291 290 286 286 286 286 287 288 288 292 292 292 292 290 290 290 290
299 298 297 296 295 294 293 292 292 292 290 289 289 289 289 289 289 289 290 290 289 287 287 291 292 293 293 293 293 292 290 291 289 288 287 289 288 288 288 291 291 288 288 287 292 289 290 292 285 285 285 285 286 286 287 289 292 291 291 291 291 291 291
299 298 297 296 295 294 293 293 292 293 290 289 289 289 290 289 288 289 289 288 289 288 287 291 292 292 292 292 294 290 289 289 287 287 287 287 288 287 289 298 298 289 288 288 290 289 290 291 285 285 284 284 285 285 286 287 288 290 291 291 291 291 291
299 298 297 296 296 295 294 293 293 292 291 290 290 290 291 289 287 287 288 290 296 290 288 290 292 291 291 292 292 290 290 289 287 285 286 288 287 287 287 291 295 293 291 291 289 290 289 290 285 284 284 283 284 284 285 285 286 287 287 287 288 289 289
299 298 297 297 296 295 295 294 293 292 291 291 290 289 289 289 289 288 288 289 290 288 288 287 289 291 292 292 292 290 289 288 288 286 285 289 288 286 286 287 291 291 290 289 289 289 289 289 287 284 284 284 284 284 286 286 289 288 286 286 286 287 288
299 298 298 297 296 296 295 294 293 292 291 291 290 289 289 289 289 287 286 286 287 286 289 287 288 290 291 291 291 291 288 287 284 286 284 286 283 284 286 286 286 291 290 289 289 289 289 289 290 287 284 283 284 288 288 285 287 290 285 287 287 287 287
299 298 298 297 296 294 294 294 293 292 291 291 290 289 288 289 288 287 286 287 287 288 292 292 288 290 291 291 291 291 289 288 286 286 286 284 284 284 283 284 286 290 290 289 289 289 289 289 289 289 286 288 288 288 288 289 286 285 285 285 285 285 286
298 298 297 297 295 293 293 293 293 292 291 290 290 289 288 288 288 286 286 285 284 285 286 290 292 289 290 290 290 290 290 288 291 289 285 286 284 284 284 285 287 292 289 289 289 289 289 289 289 287 288 287 288 288 288 285 286 284 284 284 284 284 284
298 297 297 295 294 293 292 292 292 292 291 291 290 289 287 289 287 286 286 285 285 285 285 285 291 291 289 289 290 290 289 289 289 288 288 285 284 284 285 284 288 289 289 289 289 289 289 289 287 288 288 288 288 287 285 285 284 284 284 283 283 283 283
Wind_Speed
8 8 7 7 7 6 7 5 5 5 5 6 6 6 5 5 5 6 5 5 6 5 5 6 5 3 5 4 4 5 5 6 6 7 6 7 6 5 6 8 7 6 6 8 5 2 4 9 5 2 1 8 6 5 7 9 11 10 10 9 10 10 8
8 8 6 7 7 6 8 5 6 5 6 6 6 6 5 5 5 5 5 6 6 5 5 5 4 4 5 5 6 7 7 7 6 6 7 8 8 7 6 7 7 6 5 6 8 7 5 6 9 8 11 6 3 4 6 7 9 8 8 7 9 11 8
7 8 6 7 6 6 7 5 4 5 5 6 5 5 5 4 5 5 6 6 6 5 4 4 4 6 6 6 7 7 7 8 7 8 8 7 7 8 8 6 8 7 6 6 8 9 4 4 6 12 10 13 14 8 7 11 11 7 8 6 9 10 9
10 10 8 7 6 6 7 6 5 5 5 5 5 4 5 5 6 5 6 6 5 4 5 5 6 6 6 7 8 9 9 9 8 9 9 8 8 8 9 8 8 8 7 8 8 7 6 5 8 8 11 8 10 11 5 9 9 7 7 7 10 10 9
11 9 10 9 7 7 7 7 5 6 5 5 4 6 6 5 6 5 5 5 5 5 6 5 6 7 7 8 8 8 8 9 9 9 8 9 9 8 8 7 7 7 7 7 5 6 6 5 5 6 9 11 5 1 9 8 3 9 5 9 8 10 9
9 9 9 9 6 7 6 6 5 6 5 6 6 6 4 4 5 6 5 5 5 5 6 7 7 8 8 8 8 9 9 9 9 9 9 9 8 7 7 6 7 7 7 5 5 5 4 3 4 6 6 6 8 10 5 7 6 8 4 9 9 8 8
8 8 7 8 6 6 6 6 5 5 6 5 5 4 3 4 5 4 4 5 5 6 7 8 8 8 8 8 8 9 9 8 9 10 9 8 8 8 7 7 7 7 6 5 4 4 5 5 6 8 9 7 6 7 6 7 6 7 2 7 9 8 8
8 8 7 7 7 7 5 6 5 5 6 5 5 3 4 5 4 5 5 7 7 7 8 8 8 8 8 8 8 9 8 8 9 9 8 8 8 8 8 7 7 7 6 5 5 6 5 6 7 7 9 13 9 3 6 6 5 5 9 8 8 8 10
8 8 7 6 6 6 6 6 6 5 6 5 4 4 4 4 5 6 7 8 8 8 8 8 8 7 8 9 8 9 9 6 9 9 7 8 9 9 8 6 7 7 6 6 5 5 6 6 6 6 7 8 9 11 13 8 7 6 6 11 8 5 11
10 9 9 8 7 6 6 5 6 6 6 6 5 4 5 5 6 7 8 8 8 8 8 8 9 8 9 9 8 9 9 8 9 8 7 8 8 8 7 8 7 7 6 5 5 5 5 5 5 5 6 7 7 7 10 10 12 12 12 11 12 12 12
9 9 9 9 7 7 6 6 6 7 6 6 5 5 5 6 7 7 8 8 7 8 8 8 9 9 9 9 9 8 7 8 8 8 8 8 8 6 7 7 6 7 5 5 5 4 4 4 4 5 4 4 5 5 6 8 10 8 11 12 9 12 15
9 9 8 8 7 7 6 6 8 7 7 6 6 6 6 7 7 7 7 7 8 8 8 8 9 9 9 9 8 8 7 7 8 9 7 7 6 7 7 7 6 5 4 5 5 5 5 5 6 5 6 5 5 4 6 5 10 7 7 11 12 11 12
9 9 8 8 7 7 8 9 8 7 6 6 6 6 7 7 7 7 7 8 8 8 9 8 9 9 8 7 7 8 7 8 9 9 7 6 6 6 6 7 6 5 5 4 5 6 6 5 5 5 5 5 4 4 3 5 7 11 8 8 10 12 13
9 8 8 8 9 8 8 8 7 6 6 6 6 7 7 7 7 7 8 8 9 8 9 8 7 8 8 8 8 8 8 8 9 7 7 7 5 5 5 6 5 5 4 5 5 5 5 6 5 6 5 5 5 4 3 5 7 10 9 6 8 9 12
8 8 9 8 9 9 8 8 7 6 8 5 7 8 7 6 6 8 9 9 9 9 8 8 7 7 8 9 8 7 8 8 8 7 6 6 5 5 5 6 6 5 4 4 4 5 5 5 5 5 5 5 5 6 5 3 5 7 13 11 10 9 9
8 9 10 9 10 9 8 7 6 8 7 6 6 7 7 7 8 9 9 8 8 8 8 7 7 7 8 8 9 7 7 7 7 7 7 6 5 4 6 5 5 4 4 5 4 4 4 5 4 4 5 4 5 6 6 4 4 8 11 12 11 12 11
9 9 9 8 10 8 7 6 6 8 7 7 8 6 6 7 8 9 9 8 8 7 7 7 7 7 8 8 8 8 6 6 6 6 6 5 5 5 4 5 4 4 4 4 5 5 5 4 5 5 5 5 5 6 6 5 5 5 7 11 12 11 11
9 9 9 8 9 8 7 7 6 8 7 8 7 7 6 6 8 8 9 8 8 7 7 7 8 7 7 7 8 7 6 6 5 5 4 4 4 3 3 3 3 4 4 6 6 6 6 6 6 5 6 6 6 6 6 7 7 6 7 10 12 9 10
10 10 10 9 8 8 7 7 7 6 8 9 7 6 7 6 7 8 7 7 7 6 6 6 7 7 7 7 7 7 6 5 5 4 4 3 3 2 2 3 2 2 3 4 5 6 6 6 5 5 6 7 7 6 7 8 7 7 7 8 10 13 10
10 10 9 8 8 7 7 7 7 7 6 8 8 8 7 8 5 8 7 7 7 7 6 6 7 7 7 7 7 7 6 5 4 4 3 3 3 2 3 3 3 3 4 3 3 4 6 6 5 6 6 6 6 6 8 8 8 8 8 9 9 9 11
10 10 9 9 8 8 7 7 7 7 7 8 7 7 8 8 6 6 6 6 5 6 6 6 6 6 6 6 6 6 6 5 4 3 3 3 3 3 3 4 4 4 4 4 4 4 4 5 5 6 6 6 6 7 7 7 7 8 8 8 9 11 10
9 10 10 10 9 8 8 7 7 7 7 7 6 6 6 7 8 7 6 6 6 5 7 6 4 6 6 6 5 6 5 5 4 4 3 3 4 4 4 4 4 4 8 11 11 9 7 4 4 6 7 6 6 6 6 7 7 7 8 8 9 8 10
9 10 10 10 9 8 8 7 7 7 7 7 6 6 6 6 7 7 7 6 6 6 5 3 4 8 7 6 6 5 4 4 4 3 4 4 5 4 4 5 5 12 12 10 11 13 12 11 7 3 4 5 5 5 6 7 8 7 8 9 10 11 12
10 10 9 9 9 9 8 7 7 7 7 6 6 5 6 7 6 6 7 6 6 5 4 3 6 8 9 10 6 5 5 3 3 4 4 4 4 5 6 5 4 7 8 8 8 12 12 12 12 13 12 10 7 3 4 6 8 7 8 9 10 10 10
10 10 10 10 9 8 8 8 7 7 7 7 5 6 7 6 6 5 6 6 5 4 4 4 8 9 9 9 7 5 4 4 3 2 2 3 3 4 5 6 5 4 5 7 6 7 9 11 12 12 12 11 12 12 9 4 5 8 9 9 10 11 10
11 10 10 9 9 8 9 8 7 7 7 5 5 7 6 6 5 5 6 6 5 3 3 5 9 11 10 10 8 6 4 3 3 1 1 2 3 4 4 6 6 6 5 10 8 6 6 7 10 12 11 11 12 13 12 13 12 8 5 7 8 11 11
11 10 9 9 9 9 9 8 6 5 6 5 7 6 5 6 5 5 6 6 4 4 3 3 10 12 12 11 9 6 3 2 1 0 1 3 4 4 5 4 5 6 6 5 5 6 5 5 6 6 7 7 7 10 12 12 13 14 10 6 7 9 12
11 10 10 9 9 9 9 8 7 6 6 6 7 7 7 6 5 5 5 5 5 4 3 3 11 13 13 11 9 6 3 2 2 2 3 3 3 4 4 4 4 4 5 6 5 6 5 5 5 6 7 7 7 7 7 8 8 7 8 8 7 8 10
11 10 10 9 9 9 8 8 8 6 6 5 5 5 4 5 6 6 5 6 6 5 3 4 11 14 14 12 9 4 3 3 2 2 3 4 4 3 3 4 4 5 5 5 8 10 6 3 4 5 7 7 8 8 7 9 12 12 10 9 8 8 9
10 10 10 10 10 9 9 8 6 5 7 6 6 6 5 4 5 6 5 6 8 4 4 3 9 13 13 12 8 4 4 4 3 3 3 3 3 3 4 4 3 4 4 4 8 10 9 6 5 6 6 7 7 7 8 9 13 14 15 16 16 16 16
12 10 10 10 10 8 8 7 7 6 8 8 7 6 5 5 4 5 6 6 7 6 4 3 8 10 11 10 8 6 4 5 3 3 4 3 4 4 4 8 7 4 4 4 8 8 9 5 5 5 5 7 8 8 9 9 8 10 14 16 16 17 16
10 10 10 9 9 10 9 8 6 6 6 6 6 6 5 6 4 4 5 5 8 8 5 4 6 9 9 9 8 5 6 5 4 3 5 5 4 4 5 5 7 5 5 6 8 8 9 6 5 4 4 5 7 7 8 8 7 10 11 11 12 12 12
9 10 9 8 8 8 7 7 7 7 6 6 7 6 5 6 6 4 4 5 5 5 6 4 4 8 8 8 8 6 4 6 2 1 3 3 5 5 5 5 6 8 10 9 8 8 9 8 5 4 4 5 6 8 8 7 8 8 8 8 9 10 11
11 6 8 9 8 7 7 8 7 7 7 6 6 6 6 5 6 5 4 4 5 3 4 5 4 8 8 8 7 8 4 4 3 2 2 2 3 4 6 6 5 7 10 9 7 8 9 9 7 4 4 4 3 6 7 6 9 10 7 7 9 9 9
15 11 7 8 8 7 6 7 7 7 7 7 7 6 5 5 6 4 3 3 4 4 4 6 5 6 8 8 7 7 6 2 3 2 1 1 2 2 3 4 5 7 9 7 7 8 9 9 9 4 6 7 9 11 7 5 5 6 7 7 8 9 9
11 10 9 8 9 9 7 7 6 7 8 7 7 6 5 4 5 5 4 3 3 3 3 3 7 5 7 8 8 7 6 4 3 2 1 1 2 3 4 4 5 7 8 7 6 7 8 9 7 6 10 11 11 11 8 6 6 7 7 7 8 9 9
10 10 11 9 9 9 8 7 7 7 7 7 7 7 6 5 5 5 5 3 2 2 2 2 4 6 6 7 6 6 5 5 4 1 1 1 3 4 5 4 4 8 6 7 7 7 7 7 6 9 10 11 11 8 6 6 6 7 6 7 8 9 9
Wind_Direction
125 123 120 111 102 107 91 80 76 65 62 67 73 63 62 66 68 65 70 78 83 79 81 73 77 71 71 55 58 58 61 57 57 67 57 33 54 9 14 29 25 41 50 54 41 354 294 313 308 350 42 356 357 21 356 9 359 345 348 358 3 359 15
115 116 113 109 106 102 96 82 77 74 69 61 63 68 60 60 65 71 72 79 80 77 77 77 71 67 67 64 50 48 46 44 47 59 66 52 47 36 26 21 26 26 30 50 30 22 11 327 310 345 330 339 341 9 349 10 352 341 350 358 5 0 3
125 114 113 111 109 109 100 96 90 85 80 72 60 62 66 62 67 68 72 76 80 81 75 79 75 65 58 59 55 58 58 65 55 60 64 60 56 50 49 41 38 11 28 23 29 14 10 39 336 322 338 339 336 343 354 353 348 343 348 360 9 359 356
134 128 126 112 112 111 110 104 97 87 77 78 76 65 68 65 66 70 76 76 75 78 76 69 65 67 60 62 64 64 62 64 61 61 60 56 57 53 48 49 50 46 42 40 23 16 22 360 338 325 327 333 318 317 11 346 335 344 343 10 3 355 350
142 138 132 131 132 123 118 109 101 92 84 83 79 75 63 67 76 74 79 81 80 76 70 66 61 60 64 65 64 66 65 63 61 62 58 55 53 56 52 48 53 52 50 48 35 28 25 5 343 316 323 327 311 324 323 337 318 345 349 12 357 350 345
128 126 127 126 132 126 123 118 115 110 103 86 76 76 67 80 91 87 84 84 75 66 65 59 56 61 66 69 71 70 68 64 63 64 62 57 57 58 59 52 53 51 53 45 44 37 19 333 345 330 329 327 306 315 334 342 342 333 18 358 354 344 343
122 121 124 126 127 121 122 122 123 120 110 103 90 88 105 93 84 91 88 77 69 61 61 66 70 73 75 77 74 73 69 67 66 64 64 64 60 59 56 58 49 48 47 41 38 35 22 5 11 2 336 326 297 307 326 342 341 346 354 355 345 339 338
118 118 121 126 130 128 125 123 121 116 111 102 100 112 96 90 91 82 74 65 59 62 69 75 76 74 76 77 75 74 70 67 67 66 60 60 58 53 51 49 49 44 36 30 32 30 23 23 17 11 5 350 340 302 345 341 340 12 329 331 346 335 341
116 116 114 114 116 123 128 129 125 109 102 104 99 92 79 87 82 74 64 65 70 75 79 82 81 79 77 78 73 71 71 64 68 63 59 55 51 45 46 41 47 40 30 26 25 25 32 26 20 26 21 20 8 341 338 334 353 343 352 341 335 352 342
124 128 129 127 126 120 121 119 109 106 104 101 100 92 88 76 74 73 75 75 78 84 83 82 82 79 75 74 73 72 71 66 68 63 56 55 49 47 45 42 45 41 33 26 27 26 30 32 37 36 30 34 12 6 351 332 331 342 341 356 339 334 341
126 125 127 129 126 119 112 105 106 102 105 108 102 97 89 80 72 75 83 83 84 82 84 82 80 79 79 74 73 72 72 72 69 61 54 53 48 49 51 49 46 51 33 34 36 25 21 27 25 23 17 9 6 20 343 337 317 333 328 333 337 328 331
123 123 124 123 120 117 110 107 103 107 106 104 101 99 92 85 84 81 86 87 82 82 80 81 80 76 77 80 75 75 67 68 68 65 53 54 50 54 56 58 48 49 25 28 21 16 13 8 6 6 6 357 355 7 334 324 322 321 337 320 323 324 322
125 126 128 127 117 111 112 109 110 105 108 101 98 96 92 90 90 90 86 87 85 83 82 79 80 81 79 80 80 75 67 69 70 66 61 52 56 53 58 60 48 40 19 22 20 15 10 4 4 0 355 350 339 331 320 338 333 312 324 312 312 316 322
120 121 118 111 109 109 107 105 103 111 104 99 105 93 90 88 86 89 87 83 85 85 85 82 80 84 86 85 78 75 71 69 72 67 65 59 51 54 53 57 47 36 24 32 18 13 7 0 357 352 345 341 329 319 318 310 316 312 310 312 309 316 318
116 114 107 104 105 107 106 105 112 105 98 99 101 96 91 89 90 90 88 85 85 86 85 87 89 88 89 86 80 74 74 73 73 70 66 63 51 47 48 52 38 26 22 33 16 12 4 354 354 342 335 336 323 320 315 300 303 312 316 322 324 322 319
108 103 104 105 106 108 107 109 113 107 104 98 85 91 96 93 93 91 89 89 90 88 90 93 92 92 88 86 85 79 75 76 76 74 68 62 56 49 49 45 35 24 12 22 11 358 354 348 337 337 327 326 323 313 311 301 299 314 319 320 322 324 328
104 105 105 109 109 108 108 105 106 101 101 97 93 85 87 94 93 93 94 92 93 97 96 96 93 90 90 88 88 86 80 76 75 73 74 67 56 51 50 43 27 22 15 20 360 351 346 341 339 331 324 322 318 313 309 315 310 301 308 314 323 323 322
111 109 110 112 109 108 106 106 104 108 105 96 96 97 89 89 94 94 99 102 102 100 104 102 97 90 86 86 89 89 84 79 73 68 63 59 56 55 43 49 20 17 19 17 360 354 342 340 333 331 327 322 324 321 323 321 314 308 307 310 310 313 313
119 119 118 114 114 113 112 111 108 104 109 106 99 95 100 95 100 101 102 104 105 105 99 96 95 96 94 92 89 86 85 82 76 70 62 52 44 26 33 7 345 6 20 24 353 344 342 335 330 334 335 334 333 328 323 318 316 313 308 304 310 315 324
126 123 120 118 115 113 111 112 110 110 109 108 110 107 102 101 98 106 108 107 106 104 97 90 92 92 94 95 97 95 89 83 73 67 53 42 25 15 6 348 340 333 335 333 348 344 332 336 341 337 339 333 328 331 325 321 322 319 317 313 312 310 315
125 122 120 117 115 114 114 112 109 109 108 106 108 111 113 110 109 104 108 105 103 100 95 88 85 88 92 100 101 99 99 95 86 66 46 23 11 6 358 353 342 340 344 349 354 355 356 341 339 338 336 334 329 330 324 320 322 325 324 324 321 325 325
123 122 120 119 118 117 116 115 112 110 109 107 104 104 106 112 112 103 95 98 94 88 88 87 96 106 104 97 102 106 105 102 96 82 46 26 11 9 7 3 352 350 7 8 11 12 6 356 336 331 326 331 321 323 319 322 326 328 327 325 325 324 325
125 123 123 120 120 119 117 116 112 109 106 106 106 106 104 102 103 109 106 96 90 85 82 85 92 108 115 118 112 108 102 99 98 86 64 39 19 14 11 7 352 8 5 360 7 2 355 353 348 305 277 296 299 311 324 330 335 336 332 335 335 333 336
126 125 124 121 121 120 118 117 113 110 108 108 107 106 104 100 99 102 104 105 96 90 90 102 121 122 120 118 115 113 113 107 93 78 64 52 28 7 1 358 358 2 5 1 3 356 351 348 345 342 338 334 334 339 343 343 340 338 342 335 329 334 335
126 127 126 125 124 122 120 118 117 117 115 110 107 104 99 101 103 103 99 94 93 98 102 123 139 135 132 126 122 118 119 118 102 82 57 39 17 11 357 354 356 4 360 1 10 356 344 342 341 337 337 341 346 350 355 0 346 345 343 338 335 333 333
129 129 129 127 125 122 120 119 120 121 118 120 113 105 109 106 102 101 99 96 90 89 103 142 149 146 144 135 128 122 123 126 116 124 32 6 359 1 3 359 352 357 354 359 3 357 349 336 333 336 343 349 348 351 348 348 353 354 329 332 333 328 335
131 130 130 127 125 124 123 123 122 119 119 114 111 109 107 105 104 99 101 100 96 86 82 141 154 151 146 137 132 122 121 109 105 64 346 343 341 353 357 356 356 346 344 351 359 355 340 332 332 340 349 351 347 341 344 349 350 345 345 339 330 325 322
131 133 132 129 127 126 125 123 121 124 124 128 125 124 124 114 108 104 100 100 94 72 40 117 150 143 141 136 126 116 103 82 53 18 349 340 331 339 342 345 352 346 340 348 353 347 335 333 340 348 353 351 344 339 338 345 344 339 337 337 330 317 317
136 137 136 133 131 131 131 131 130 131 118 110 106 107 98 106 110 107 108 105 95 74 39 88 135 134 135 133 122 104 98 76 43 6 344 337 346 337 336 341 349 356 348 339 342 343 345 344 6 4 356 347 345 341 341 334 336 336 336 332 325 324 324
140 142 140 137 137 138 135 130 127 128 119 122 123 118 124 118 124 118 112 105 100 87 65 74 122 127 129 126 110 105 97 78 44 19 343 333 330 337 336 333 2 5 350 342 339 343 353 17 21 11 356 350 342 345 340 337 336 336 337 336 333 334 332
143 145 145 144 143 140 134 128 133 138 132 133 125 130 126 113 113 122 118 112 115 109 86 76 109 115 124 128 128 124 111 95 53 16 338 339 349 352 336 359 8 18 352 336 336 352 4 19 25 9 5 353 354 349 340 338 335 333 338 337 338 338 336
141 144 146 145 144 142 143 142 137 127 126 120 124 127 121 115 107 99 113 117 115 109 106 84 94 109 117 126 120 115 111 100 70 12 10 355 344 355 349 349 349 359 1 341 349 3 14 24 32 15 357 2 355 347 329 324 327 337 339 341 340 341 341
142 143 143 141 145 142 138 131 135 133 127 126 127 124 120 119 115 108 100 100 98 113 112 97 98 108 112 113 118 117 118 97 93 26 11 16 356 342 347 340 340 348 354 352 356 7 13 20 28 11 14 18 353 336 320 323 331 336 329 335 329 336 334
129 130 141 147 145 140 142 139 139 134 132 126 120 116 115 116 110 105 95 104 107 100 117 110 91 97 98 102 111 112 97 116 147 105 56 358 356 329 323 323 317 330 345 347 359 9 11 10 10 19 20 0 315 292 308 337 331 335 336 337 339 336 341
135 142 152 145 142 140 141 140 142 139 135 135 130 124 121 115 113 103 76 79 96 104 110 115 109 87 90 89 91 102 111 141 167 124 71 331 336 311 285 292 306 319 328 342 360 12 11 6 3 21 351 336 340 351 348 329 324 337 343 346 341 345 347
146 142 150 150 143 142 146 143 143 140 139 136 132 131 128 125 117 111 86 63 62 73 70 95 108 103 89 90 86 82 99 113 132 118 108 352 299 288 293 291 287 310 326 342 6 13 13 5 9 356 346 354 353 349 347 353 347 351 351 347 351 351 345
149 143 144 145 142 142 151 150 148 149 145 140 140 136 137 131 126 130 131 119 79 55 40 69 86 102 105 96 88 91 86 75 67 113 159 238 267 271 290 292 300 313 321 357 10 10 4 12 1 351 354 353 353 354 355 355 1 352 347 355 356 349 347